Regional Weather Roundup
Issued by NWS

Home | Current Version | Previous Version | Graphics & Text | Print | Product List | Glossary On
Versions: 1 2 3 4 5 6 7 8 9 10 11 12 13 14 15 16 17 18 19 20 21 22 23 24 25 26 27 28 29 30 31 32 33 34 35 36 37 38 39 40 41 42 43 44 45 46 47 48 49 50
000
ASUS43 KDTX 200610
RWRMI
MICHIGAN HOURLY REGIONAL WEATHER ROUNDUP
NATIONAL WEATHER SERVICE DETROIT/PONTIAC MI
100 AM EST SAT DEC 20 2014

NOTE: "FAIR" INDICATES FEW OR NO CLOUDS BELOW 12,000 FEET WITH NO
SIGNIFICANT WEATHER AND/OR OBSTRUCTION TO VISIBILITY.

MIZ047>049-052>055-059>063-066>070-074>076-081>083-200700-
SOUTHEAST LOWER MICHIGAN

CITY           SKY/WX    TMP DP  RH WIND       PRES   REMARKS
ADRIAN         CLOUDY    29  23  78 CALM      30.27F
6HR MIN TEMP:  29; 6HR MAX TEMP:  30;

ALMA           CLEAR     17  17  98 CALM      30.28S
ANN ARBOR      CLOUDY    27  22  81 E3        30.27S
BAD AXE        CLEAR     14  13  96 CALM      30.27S
6HR MIN TEMP:  13; 6HR MAX TEMP:  20;

CARO           CLEAR     15  13  92 CALM      30.28R
DETROIT CITY   CLEAR     25  18  74 W3        30.28F
6HR MIN TEMP:  23; 6HR MAX TEMP:  29;

DETROIT        CLOUDY    24  20  84 CALM      30.29S
6HR MIN TEMP:  21; 6HR MAX TEMP:  25;

FLINT          CLEAR     19  15  84 CALM      30.28S
6HR MIN TEMP:  18; 6HR MAX TEMP:  26;

GROSSE ILE     CLOUDY    27  21  80 CALM      30.28R
HILLSDALE      CLOUDY    24  24  97 CALM      30.23F FOG
6HR MIN TEMP:  21; 6HR MAX TEMP:  30;

HOWELL         CLEAR     18  17  95 CALM      30.26S
6HR MIN TEMP:  18; 6HR MAX TEMP:  24;


CITY           SKY/WX    TMP DP  RH WIND       PRES   REMARKS
JACKSON        PTCLDY    21  18  88 CALM      30.25F
6HR MIN TEMP:  20; 6HR MAX TEMP:  29;

LAMBERTVILLE   CLOUDY    32  27  80 CALM      30.28S
LANSING        CLEAR     19  17  92 CALM      30.27F
6HR MIN TEMP:  18; 6HR MAX TEMP:  25;

LAPEER         FAIR      17  15  95 CALM      30.27S
MASON          CLEAR     19  17  93 CALM      30.26S
MONROE         CLOUDY    28  25  86 N3        30.26F
MT. CLEMENS    CLOUDY    24  23  96 W2        30.26S
6HR MIN TEMP:  22; 6HR MAX TEMP:  27;

PONTIAC        CLEAR     19  15  84 CALM      30.25F
6HR MIN TEMP:  19; 6HR MAX TEMP:  25;

PORT HOPE        N/A     23  20  88 SW3       30.25F
6HR MIN TEMP:  22; 6HR MAX TEMP:  28;

PORT HURON     CLEAR     18  18 100 CALM      30.28R
TRI CITIES     CLEAR     22  18  85 SW3       30.28R
6HR MIN TEMP:  21; 6HR MAX TEMP:  28;

TROY           CLEAR     25  20  83 CALM      30.29S
SAGINAW HB     CLEAR     21  21 100 CALM      30.28R
$$
MIZ043>046-050>051-056>058-064>065-071>073-077>080-200700-
SOUTHWEST LOWER MICHIGAN

CITY           SKY/WX    TMP DP  RH WIND       PRES   REMARKS
BATTLE CREEK   PTCLDY    21  16  81 CALM      30.25F
6HR MIN TEMP:  20; 6HR MAX TEMP:  26;

BENTON HARBOR  CLOUDY    27  21  78 CALM      30.26S
6HR MIN TEMP:  27; 6HR MAX TEMP:  30;

BIG RAPIDS     CLEAR     16  15  96 CALM      30.25S
6HR MIN TEMP:  16; 6HR MAX TEMP:  24;

COLDWATER      MOCLDY    19  18  95 CALM      30.25S FOG
6HR MIN TEMP:  18; 6HR MAX TEMP:  25;

FREMONT        FAIR      20  19  97 E3        30.26S
HOLLAND        PTCLDY    23  18  81 CALM      30.27F
6HR MIN TEMP:  21; 6HR MAX TEMP:  28;

GRAND RAPIDS   CLEAR     20  17  88 S3        30.26F
6HR MIN TEMP:  20; 6HR MAX TEMP:  26;

IONIA          FAIR      22  20  96 CALM      30.26S
KALAMAZOO      PTCLDY    22  18  85 CALM      30.26S FOG
6HR MIN TEMP:  21; 6HR MAX TEMP:  28;

LUDINGTON      CLOUDY    18  15  88 CALM      30.28R
6HR MIN TEMP:  16; 6HR MAX TEMP:  23;

MARSHALL       PTCLDY    18  16  93 CALM      30.25S
MOUNT PLEASANT CLEAR     18  16  93 CALM      30.26S
6HR MIN TEMP:  17; 6HR MAX TEMP:  24;

MUSKEGON       PTCLDY    21  16  81 E3        30.27F
6HR MIN TEMP:  20; 6HR MAX TEMP:  26;

SOUTH HAVEN    MOCLDY    23  20  88 E3        30.26S
$$
MIZ016>042-200700-
NORTHERN LOWER MICHIGAN

CITY           SKY/WX    TMP DP  RH WIND       PRES   REMARKS
ALPENA         CLEAR     11   7  84 CALM      30.28F
6HR MIN TEMP:  10; 6HR MAX TEMP:  18;

BEAVER ISLAND  CLEAR     14  12  94 CALM      30.26S
6HR MIN TEMP:  10; 6HR MAX TEMP:  17;

BELLAIRE       CLOUDY    24  22  90 CALM      30.27S
6HR MIN TEMP:  24; 6HR MAX TEMP:  28;

CADILLAC       CLEAR      8   6  91 CALM      30.23R
CHARLEVOIX     CLOUDY    24  22  91 E3        30.29R
6HR MIN TEMP:  19; 6HR MAX TEMP:  25;

FRANKFORT      CLOUDY    28  24  83 CALM      30.26S
GAYLORD        FOG        6   4  91 CALM      30.22S VSB 3/4
6HR MIN TEMP:   4; 6HR MAX TEMP:  17;

GRAYLING       PTCLDY     4   1  87 CALM      30.25S
6HR MIN TEMP:   2; 6HR MAX TEMP:  16;

HARBOR SPRINGS PTCLDY    14  11  91 NE5       30.26S WCI   6
HOUGHTON LAKE  CLEAR      9   5  84 CALM      30.24S
6HR MIN TEMP:   9; 6HR MAX TEMP:  20;

MANISTEE       CLOUDY    25  19  80 E3        30.27R
OSCODA         CLEAR     11  10  93 CALM      30.27R
PELLSTON       PTCLDY     2  -2  83 CALM      30.27F
6HR MIN TEMP:   2; 6HR MAX TEMP:  14;

ROGERS CITY    CLEAR     12  11  97 S5        30.28F WCI   4
TRAVERSE CITY  CLOUDY    28  21  75 CALM      30.26S
6HR MIN TEMP:  27; 6HR MAX TEMP:  29;

$$
MIZ007>008-015-200700-
EASTERN UPPER MICHIGAN

CITY           SKY/WX    TMP DP  RH WIND       PRES   REMARKS
KINROSS        PTCLDY     9   7  92 CALM      30.26F
6HR MIN TEMP:   9; 6HR MAX TEMP:  16;

MACKINAC ISLAN PTCLDY    17  16  98 N3        30.25F
6HR MIN TEMP:  16; 6HR MAX TEMP:  18;

NEWBERRY       CLOUDY    24  20  85 CALM      30.24F
6HR MIN TEMP:  12; 6HR MAX TEMP:  24;

S. S. MARIE    PTCLDY    14   9  80 CALM      30.25F
6HR MIN TEMP:  13; 6HR MAX TEMP:  18;

MUNISING         N/A     25  18  74 CALM      30.25F
6HR MIN TEMP:  25; 6HR MAX TEMP:  31;

$$
MIZ004>006-011>014-085-200700-
CENTRAL UPPER MICHIGAN

CITY           SKY/WX    TMP DP  RH WIND       PRES   REMARKS
MANISTIQUE     CLOUDY    25  20  80 CALM      30.26S
6HR MIN TEMP:  25; 6HR MAX TEMP:  28;

ESCANABA       CLEAR     12   9  85 CALM      30.25S
6HR MIN TEMP:  12; 6HR MAX TEMP:  28;

MENOMINEE      PTCLDY    14  10  85 CALM      30.25F
6HR MIN TEMP:  14; 6HR MAX TEMP:  23;

SAWYER-GWINN   FOG       14  12  92 CALM      30.20F VSB 1
$$
MIZ001>003-009>011-084-200700-
WESTERN UPPER MICHIGAN

CITY           SKY/WX    TMP DP  RH WIND       PRES   REMARKS
IRON MOUNTAIN  CLOUDY    15  12  88 CALM      30.21S
6HR MIN TEMP:   8; 6HR MAX TEMP:  16;

HOUGHTON       CLOUDY    23  17  78 S6        30.20S WCI  16
6HR MIN TEMP:  23; 6HR MAX TEMP:  25;

COPPER HARBOR    N/A     26  23  88 CALM      30.22S
6HR MIN TEMP:  26; 6HR MAX TEMP:  29;

IRONWOOD       CLOUDY    25  21  86 CALM      30.15F
6HR MIN TEMP:  23; 6HR MAX TEMP:  25;

$$

ABBREVIATIONS USED IN REMARKS
   TC - TEMPERATURE IN CELSIUS
  WCI - WIND CHILL INDEX
   HX - HEAT INDEX
  VSB - VISIBILITY



USA.gov is the U.S. government's official web portal to all federal, state and local government web resources and services.